Location: Cutler
(25.6150°N, 80.3110°W)
Time: 14:19:03
(UTC-05:00)

N. Korean satellite - Visible Passes

Search period start: 21 February 2018 00:00
Search period end: 03 March 2018 00:00
Orbit: 459 x 514 km, 97.2° (Epoch: 21 February)

Date Brightness Start Highest point End Pass type
(mag) Time Alt. Az. Time Alt. Az. Time Alt. Az.
21 Feb 7.9 18:43:56 10° S 18:47:12 43° W 18:50:30 10° NNW visible
22 Feb 9.4 06:19:02 10° NE 06:22:10 26° E 06:25:18 10° SSE visible
23 Feb 10.5 05:56:52 10° ENE 05:58:21 12° E 05:59:51 10° ESE visible
24 Feb 9.7 19:06:56 10° SW 19:09:28 19° W 19:12:01 10° NW visible
25 Feb 7.8 18:42:21 10° S 18:45:40 45° W 18:49:00 10° NNW visible
26 Feb 9.5 06:17:33 10° NE 06:20:40 25° E 06:23:47 10° SSE visible
27 Feb 10.5 05:55:30 10° ENE 05:56:51 12° E 05:58:12 10° ESE visible
28 Feb 9.6 19:05:16 10° SSW 19:07:53 20° W 19:10:32 10° NW visible
02 Mar 9.6 06:16:03 10° NE 06:19:08 24° E 06:22:12 10° SSE visible
